Location: Montreal
(45.5000°N, 73.5800°W)
Time: 06:52:00
(UTC-05:00)

ISS - Visible Passes

Search period start: 15 November 2025 00:00
Search period end: 25 November 2025 00:00
Orbit: 415 x 420 km, 51.6° (Epoch: 14 November)

Date Brightness Start Highest point End Pass type
(mag) Time Alt. Az. Time Alt. Az. Time Alt. Az.
15 Nov -3.3 18:25:16 10° WSW 18:28:15 59° WNW 18:28:15 59° WNW visible
16 Nov -3.8 17:37:07 10° WSW 17:40:28 87° SSE 17:42:09 27° ENE visible
16 Nov -0.6 19:14:29 10° WNW 19:15:05 14° WNW 19:15:05 14° WNW visible
17 Nov -3.4 16:49:05 10° SW 16:52:22 55° SE 16:55:39 10° ENE visible
17 Nov -2.5 18:26:06 10° W 18:28:54 35° NNW 18:28:54 35° NNW visible
18 Nov -3.1 17:37:44 10° W 17:40:59 47° NNW 17:42:40 24° NE visible
18 Nov -0.4 19:15:20 10° WNW 19:15:35 11° WNW 19:15:35 11° WNW visible
19 Nov -3.5 16:49:25 10° WSW 16:52:45 66° NNW 16:56:05 10° ENE visible
19 Nov -2.0 18:26:57 10° WNW 18:29:17 26° NNW 18:29:17 26° NNW visible
20 Nov -2.5 17:38:31 10° WNW 17:41:33 31° N 17:42:58 22° NNE visible
21 Nov -2.8 16:50:02 10° W 16:53:11 37° NNW 16:56:21 10° NE visible
21 Nov -1.9 18:27:34 10° WNW 18:29:31 23° NNW 18:29:31 23° NNW visible
22 Nov -2.4 17:39:10 10° WNW 17:42:06 27° N 17:43:09 23° NNE visible
23 Nov -2.5 16:50:41 10° WNW 16:53:38 28° N 16:56:37 10° NE visible
23 Nov -1.9 18:27:52 10° NW 18:29:42 25° NNW 18:29:42 25° NNW visible
24 Nov -2.6 17:39:31 10° NW 17:42:32 30° N 17:43:21 26° NE visible
24 Nov -0.3 19:16:15 10° WNW 19:16:15 10° WNW 19:16:15 10° WNW visible
